Location: Harwich
(41.6860°N, 70.0760°W)
Time: 17:17:13
(UTC-05:00)

Daily predictions for brighter satellites

Satellite Brightness Start Highest point End
(mag) Time Altitude Azimuth Time Altitude Azimuth Time Altitude Azimuth
Cosmos 1844 Rocket 3.5 16:34:37 10° SSE 16:39:25 30° ESE 16:44:15 10° NE
MOS 1 4.5 16:34:39 10° SE 16:40:07 52° ENE 16:45:35 10° N
ASTEX 1 4.1 16:37:47 10° N 16:42:42 59° W 16:47:36 10° SSW
Abrixas 3.9 16:41:33 10° WNW 16:44:09 27° NNW 16:46:45 10° NE
Cosmos 1378 Rocket 3.5 16:43:07 10° S 16:47:25 79° E 16:51:44 10° N
OTV 4 1.8 16:45:08 10° WSW 16:47:54 34° S 16:50:41 10° ESE
GEOS 3 Rocket 4.2 16:46:52 10° ESE 16:51:27 34° NE 16:56:02 10° NNW
Cosmos 2341 Rocket 4.0 16:48:34 10° N 16:54:48 79° E 17:01:01 10° S
SL-27 R/B 3.8 16:52:06 10° N 16:55:01 22° ENE 16:57:55 10° ESE
Cosmos 1295 Rocket 4.5 16:49:55 10° N 16:56:00 61° E 17:02:00 10° SSE
Cosmos 1455 Rocket 4.1 16:54:27 10° NNE 16:58:06 25° ENE 17:01:45 10° SE
CORIOLIS 4.2 16:54:46 10° SSE 17:00:06 62° ENE 17:05:27 10° N
BREEZE-M DEB (TANK) 3.9 16:54:27 10° WNW 17:02:05 70° SW 17:05:47 10° SE
COSMOS 2406 3.2 16:56:49 10° NNW 17:02:33 68° ENE 17:08:15 10° SSE
Cosmos 1048 Rocket 4.1 16:57:16 10° NNW 17:02:36 90° W 17:07:58 10° SSE
ISS -2.7 17:00:36 10° SSW 17:03:45 43° SE 17:06:08 16° ENE
Cosmos 2278 Rocket 3.4 17:00:29 10° SSE 17:04:42 22° E 17:08:10 13° ENE
SJ-7 4.4 17:01:29 10° SSE 17:05:39 66° ENE 17:09:52 10° N
Cosmos 158 Rocket 4.0 17:00:40 10° NNW 17:06:02 68° ENE 17:11:17 10° SSE
CZ-4 R/B 4.4 17:08:25 10° SSE 17:12:30 62° ENE 17:16:37 10° N
Meteor 1-5 Rocket 4.1 17:07:56 10° N 17:13:20 78° E 17:18:52 10° SSE
SPOT 3 Rocket 3.7 17:11:28 10° SSE 17:16:40 80° WSW 17:21:53 10° NNW
CZ-2C R/B 2.5 17:11:50 10° SSE 17:16:45 83° WSW 17:21:52 10° NNW
Cosmos 1484 Rocket 3.1 17:16:56 10° SE 17:20:29 40° ENE 17:24:01 10° N
Cosmos 1238 Rocket 2.4 17:21:09 10° SSE 17:24:00 41° E 17:25:30 22° NE
MONITOR-E 4.2 17:22:11 10° SSE 17:25:19 59° ENE 17:28:28 10° N
ASTRO F (AKARI) 4.1 17:23:50 10° NNE 17:27:00 83° ESE 17:30:08 10° SSW
BREEZE M DEB (TANK) 3.8 17:19:18 10° SSW 17:28:41 37° SSE 17:30:49 22° E
Cosmos 2082 Rocket 3.5 17:24:55 10° N 17:28:47 18° NE 17:28:55 18° NE
IDEFIX/ARIANE 42P 3.0 17:25:36 10° S 17:30:45 64° WSW 17:35:56 10° NNW
COSMOS 2441 4.3 17:29:37 10° SSE 17:34:28 79° ENE 17:39:23 10° N
USA 32 4.0 17:30:16 10° S 17:35:29 86° W 17:40:45 10° N
Cosmos 864 Rocket 4.4 17:29:16 10° N 17:35:32 69° E 17:41:49 10° SSE
Cosmos 1833 Rocket 4.1 17:33:18 10° N 17:36:28 18° NE 17:36:28 18° NE
BREEZE M DEB (TANK) 3.7 17:36:15 10° NW 17:39:22 36° NNE 17:42:21 24° ENE
Okean 1 3.5 17:36:15 10° SSE 17:40:07 46° E 17:42:07 25° NNE
COSMO-SKYMED 1 2.5 17:39:18 11° NNE 17:43:28 69° ESE 17:47:46 10° S
Meteor 1-18 Rocket 4.1 17:38:31 10° S 17:44:05 74° E 17:49:49 10° NNE
Cosmos 1544 Rocket 3.7 17:41:44 10° N 17:46:11 76° W 17:50:38 10° S
USA 234 4.2 17:42:38 15° NE 17:47:35 38° NNW 17:53:30 10° W
SL-24 DEB 4.2 17:44:37 10° N 17:49:24 85° E 17:54:07 10° S
MSX 4.2 17:44:01 10° S 17:49:44 68° WSW 17:55:30 10° NNW
Meteor 1-28 Rocket 3.3 17:54:50 50° E 17:55:00 51° E 17:58:42 10° S
METEOR-M 4.3 17:52:15 10° SE 17:57:19 46° ENE 18:02:25 10° N
CZ-4 R/B 4.3 17:56:37 10° SW 17:59:41 20° W 18:02:46 10° NW
CZ-3B DEB 2.3 17:55:49 10° SW 17:59:43 83° NW 18:05:04 25° NE
NOAA 12 4.1 17:55:15 10° SSE 18:00:26 58° ENE 18:05:37 10° N
NOSS 3-3 (A) 4.0 17:56:09 10° SSW 18:02:11 59° ESE 18:04:55 34° NE
NOSS 3-3 (C) 4.0 17:56:15 10° SSW 18:02:17 59° ESE 18:04:58 34° NE
Cosmos 1346 Rocket 3.2 17:59:53 10° S 18:02:56 44° SE 18:02:56 44° SE
Cosmos 1536 Rocket 3.7 18:01:04 10° SSW 18:05:31 77° W 18:09:13 15° N
Cosmos 494 Rocket 4.0 18:01:38 10° NNW 18:06:54 84° WSW 18:12:09 10° SSE
Cosmos 1812 3.5 18:05:33 10° SSW 18:09:18 51° W 18:12:08 17° N
ATLAS 2AS CENTAUR R/B 3.0 18:03:01 10° NW 18:11:08 82° WSW 18:18:40 10° SSE
Cosmos 2251 Rocket 4.0 18:08:10 10° NNW 18:13:29 63° WSW 18:18:42 10° S
Meteor 2-21 Rocket 4.3 18:12:19 10° N 18:18:32 70° E 18:24:40 10° SSE
Cosmos 1975 3.3 18:15:55 10° NNW 18:19:56 60° W 18:23:56 10° S
Cosmos 1844 Rocket 3.9 18:17:58 10° SW 18:23:09 38° WNW 18:27:30 14° N
OTV 4 3.0 18:21:47 10° WSW 18:23:24 18° SW 18:23:24 18° SW
Meteor 2-16 Rocket 4.3 18:19:01 10° N 18:25:05 64° E 18:31:06 10° SSE
Timation 2 Rocket 4.2 18:20:14 10° NNW 18:26:57 58° ENE 18:28:08 52° E
Cosmos 1535 Rocket 4.4 18:22:16 10° N 18:28:33 60° E 18:34:41 10° SSE
Cosmos 2297 4.0 18:24:58 10° S 18:29:32 49° SE 18:29:32 49° SE
SL-24 R/B - RUBIN 2 4.5 18:28:36 10° SSW 18:34:42 59° ESE 18:34:42 59° ESE
Meteor 1-19 Rocket 4.1 18:29:49 10° S 18:35:19 70° ESE 18:35:19 70° ESE
SL-8 R/B 4.0 18:35:05 10° SW 18:39:03 61° SW 18:39:03 61° SW
ISS -0.7 18:37:24 10° W 18:38:49 20° WNW 18:38:49 20° WNW
BREEZE-M R/B 3.7 18:38:42 10° WSW 18:47:33 73° NNW 18:47:38 73° NNW
Cosmos 2239 Rocket 4.3 18:41:28 10° N 18:47:43 86° E 18:53:53 10° S
Cosmos 2278 Rocket 2.8 18:42:52 10° SW 18:48:22 52° WNW 18:50:04 39° NNW
Meteor 1-13 Rocket 4.3 18:43:30 10° SSW 18:49:07 73° WNW 18:50:26 53° NNW
Cosmos 1821 Rocket 4.0 18:49:20 10° N 19:01:31 10° S 19:01:34 10° S
Cosmos 2082 Rocket 3.5 19:07:50 10° NNW 19:10:50 33° NNW 19:10:50 33° NNW
Cosmos 1833 Rocket 4.4 19:16:03 10° NNW 19:18:13 24° NNW 19:18:13 24° NNW
FALCON 9 R/B 4.2 19:53:31 10° W 20:01:52 34° WSW 20:01:52 34° WSW
